カタログに戻る

STARLINK-34741

運用中通信VLEO
NORAD 65097·PAYLOAD·🇺🇸 United States

打ち上げ Aug 4, 2025 から Cape Canaveral Space Force Station

Loading…

次のパス (今後24時間)

TLE

最新Source: CelesTrak SupGP

元期: Sep 15, 2026, 03:25 UTC

1 65097C 25167V   26258.14284722 -.00056926  00000+0 -16818-2 0  2584
2 65097  53.1578 219.0197 0001410  87.0161 270.4849 15.34420797    13

AllMySatでSTARLINK-34741をリアルタイム追跡

Download on the App Store